User: anonymous   Login
Location: *
(47.2969°N, 10.2930°E)
Time: 11:45:45
(UTC+00:00)
Language:

Cosmos-2242 - Orbit

View from above orbital plane
View from above orbital plane
View from above satellite
View from above satellite

Ground track
Ground track

The orbit data is extracted from the following two-line orbital elements,

1 22626U 93024A   20190.94004754 +.00000128 +00000-0 +11243-4 0  9997
2 22626 082.5216 067.7504 0019353 014.4911 345.6857 14.88005505472056
Epoch (UTC): 08 July 2020 22:33:40
Eccentricity: 0.0019353
inclination: 82.5216°
perigee height: 590 km
apogee height: 617 km
right ascension of ascending node: 67.7504°
argument of perigee: 14.4911°
revolutions per day: 14.88005505
mean anomaly at epoch: 345.6857°
orbit number at epoch: 47205

The dashed part of the orbit path shows where the satellite is in the earth's shadow,  

DLR